FW1747 Weather Reports


time (UTC)temp
C
wind
direction
speed
KPH
gust
KPH
rain 1hr
cm
rain 24hr
cm
rain mn
cm
humidity
%
barometer
mb
20260510091522 12 332 0.0 0.0 0.00 0.00 0.00 78 1016.7
20260510090020 12 232 0.0 0.0 0.00 0.00 0.00 77 1016.7
20260510084519 12 293 0.0 0.0 0.00 0.00 0.00 75 1016.7
20260510083013 12 293 0.0 0.0 0.00 0.00 0.00 74 1016.4
20260510081510 13 293 0.0 0.0 0.00 0.00 0.00 73 1016.4
20260510080021 13 265 0.0 0.0 0.00 0.00 0.00 71 1016.4
20260510074504 14 265 0.0 0.0 0.00 0.00 0.00 69 1016.4
20260510073100 14 304 0.0 0.0 0.00 0.00 0.00 68 1016.5
20260510071559 15 277 0.0 0.0 0.00 0.00 0.00 67 1016.4
20260510070055 15 266 0.0 0.0 0.00 0.00 0.00 65 1016.3
20260510064601 16 286 0.0 0.0 0.00 0.00 0.00 64 1016.3
20260510063054 16 283 0.0 0.0 0.00 0.00 0.00 61 1016.3
20260510061558 16 271 0.0 0.0 0.00 0.00 0.00 61 1016.2
20260510060052 17 295 0.0 0.0 0.00 0.00 0.00 60 1016.1
20260510054553 17 162 0.0 0.0 0.00 0.00 0.00 60 1016.1
20260510053052 17 1 0.0 0.0 0.00 0.00 0.00 59 1016.0
20260510051601 16 304 0.0 0.0 0.00 0.00 0.00 60 1015.8
20260510050053 17 297 0.0 0.0 0.00 0.00 0.00 62 1015.7
20260510044601 17 243 0.0 0.0 0.00 0.00 0.00 62 1015.7
20260510043051 17 238 0.0 0.0 0.00 0.00 0.00 61 1015.5
20260510041550 17 190 0.0 0.0 0.00 0.00 0.00 61 1015.4
20260510040051 18 70 0.0 0.0 0.00 0.00 0.00 58 1015.2
20260510034549 18 70 0.0 0.0 0.00 0.00 0.00 57 1015.0
20260510033055 20 68 0.0 0.0 0.00 0.00 0.00 56 1014.9
20260510031548 20 69 0.0 0.0 0.00 0.00 0.00 51 1014.9
20260510030057 22 69 0.0 0.0 0.00 0.00 0.00 47 1014.8
20260510024546 22 69 0.0 0.0 0.00 0.00 0.00 45 1014.7
20260510023049 23 69 0.0 0.0 0.00 0.00 0.00 44 1014.7
20260510021545 23 30 0.0 0.0 0.00 0.00 0.00 43 1014.8
20260510020045 23 359 0.0 0.0 0.00 0.00 0.00 41 1014.8
20260510014544 23 30 0.0 0.0 0.00 0.00 0.00 38 1014.8
20260510013042 24 321 0.0 0.0 0.00 0.00 0.00 35 1015.1
20260510011547 23 351 0.0 0.0 0.00 0.00 0.00 35 1015.1
20260510010040 23 319 0.0 0.0 0.00 0.00 0.00 35 1015.1
20260510004538 23 326 0.0 0.0 0.00 0.00 0.00 36 1015.2
20260510003041 23 359 0.0 0.0 0.00 0.00 0.00 37 1015.3
20260510001537 23 355 0.0 0.0 0.00 0.00 0.00 39 1015.4
20260510000035 24 313 0.0 0.0 0.00 0.00 0.00 37 1015.6
20260509234540 24 214 0.0 1.6 0.00 0.00 0.00 40 1015.6
20260509233036 24 306 0.0 0.0 0.00 0.00 0.00 40 1015.8
20260509231538 23 320 0.0 1.6 0.00 0.00 0.00 41 1016.0
20260509230030 24 277 0.0 0.0 0.00 0.00 0.00 40 1016.2
20260509224528 23 1 0.0 0.0 0.00 0.00 0.00 43 1016.4
20260509223028 23 360 0.0 1.6 0.00 0.00 0.00 43 1016.7
20260509221522 23 1 0.0 1.6 0.00 0.00 0.00 40 1016.8
20260509220026 22 360 0.0 0.0 0.00 0.00 0.00 45 1017.1
20260509214516 22 348 0.0 0.0 0.00 0.00 0.00 46 1017.4
20260509213013 22 256 0.0 0.0 0.00 0.00 0.00 50 1017.6
20260509211510 21 343 0.0 0.0 0.00 0.00 0.00 49 1017.7
20260509210006 21 353 0.0 1.6 0.00 0.00 0.00 56 1017.7
20260509204505 20 325 0.0 0.0 0.00 0.00 0.00 54 1018.0
20260509203009 20 278 0.0 0.0 0.00 0.00 0.00 54 1018.2
20260509201502 20 18 0.0 0.0 0.00 0.00 0.00 58 1018.3
20260509200105 20 325 0.0 3.2 0.00 0.00 0.00 52 1018.5
20260509194556 20 359 0.0 0.0 0.00 0.00 0.00 55 1018.6
20260509193053 20 316 0.0 0.0 0.00 0.00 0.00 59 1018.8
20260509191550 18 14 0.0 1.6 0.00 0.00 0.00 60 1018.9
20260509190047 19 360 0.0 1.6 0.00 0.00 0.00 59 1019.2
20260509184552 18 253 0.0 1.6 0.00 0.00 0.00 61 1019.2
20260509183042 18 331 0.0 1.6 0.00 0.00 0.00 63 1019.4
20260509181550 17 11 0.0 14.5 0.00 0.00 0.00 64 1019.5
20260509180032 16 2 0.0 1.6 0.00 0.00 0.00 66 1019.5
20260509174530 16 291 0.0 1.6 0.00 0.00 0.00 67 1019.8
20260509173027 16 354 0.0 0.0 0.00 0.00 0.00 67 1019.8
20260509171523 15 321 0.0 1.6 0.00 0.00 0.00 72 1019.9
20260509170019 14 321 0.0 1.6 0.00 0.00 0.00 72 1020.3
20260509164520 13 330 0.0 1.6 0.00 0.00 0.00 73 1020.3
20260509163013 13 333 0.0 1.6 0.00 0.00 0.00 74 1020.7
20260509161507 12 360 0.0 1.6 0.00 0.00 0.00 76 1020.8
20260509160005 12 324 0.0 1.6 0.00 0.00 0.00 77 1020.7
20260509154503 12 5 0.0 3.2 0.00 0.00 0.00 78 1020.8
20260509153003 12 348 0.0 1.6 0.00 0.00 0.00 80 1021.1
20260509151600 11 2 0.0 1.6 0.00 0.00 0.00 81 1021.3
20260509150100 11 311 0.0 0.0 0.00 0.00 0.00 83 1021.4
20260509144601 10 359 0.0 0.0 0.00 0.00 0.00 85 1021.4
20260509143059 10 347 0.0 0.0 0.00 0.00 0.00 86 1021.3
20260509141558 10 359 0.0 0.0 0.00 0.00 0.00 90 1021.2
20260509140105 9 359 0.0 0.0 0.00 0.00 0.00 91 1021.3
20260509134603 8 359 0.0 0.0 0.00 0.00 0.00 90 1021.2
20260509133057 8 355 0.0 0.0 0.00 0.00 0.00 89 1021.1
20260509131555 8 355 0.0 0.0 0.00 0.00 0.00 87 1021.1
20260509130055 8 355 0.0 0.0 0.00 0.00 0.00 86 1021.1
20260509124551 8 360 0.0 0.0 0.00 0.00 0.00 85 1021.3
20260509123049 8 360 0.0 0.0 0.00 0.00 0.00 85 1021.2
20260509121546 9 360 0.0 0.0 0.00 0.00 0.00 85 1021.4
20260509120058 9 359 0.0 0.0 0.00 0.00 0.00 84 1021.5
20260509114544 9 359 0.0 0.0 0.00 0.00 0.00 84 1021.4
20260509113043 10 359 0.0 0.0 0.00 0.00 0.00 84 1021.5
20260509111542 10 347 0.0 0.0 0.00 0.00 0.00 84 1021.4
20260509110044 10 359 0.0 0.0 0.00 0.00 0.00 85 1021.6
20260509104539 9 293 0.0 0.0 0.00 0.00 0.00 84 1021.8
20260509103038 9 293 0.0 0.0 0.00 0.00 0.00 83 1021.8
20260509101545 10 293 0.0 0.0 0.00 0.00 0.00 83 1021.8
20260509100041 10 293 0.0 0.0 0.00 0.00 0.00 82 1021.8
20260509094532 10 293 0.0 0.0 0.00 0.00 0.00 81 1022.0
20260509093030 10 293 0.0 0.0 0.00 0.00 0.00 81 1022.0